Tracking 19638 objects as of 21-Apr-2019
HD Live streaming from Space Station
objects crossing your sky now

COSMOS 2065

Track COSMOS 2065 now!
10-day predictions
COSMOS 2065 is classified as:


NORAD ID: 20550
Int'l Code: 1990-029B
Perigee: 1,468.1 km
Apogee: 1,482.2 km
Inclination: 74.0 °
Period: 115.3 minutes
Semi major axis: 7846 km
RCS: 0.6645 m2 (medium)
Launch date: April 6, 1990
Source: Commonwealth of Independent States (former USSR) (CIS)
Launch site: PLESETSK MISSILE AND SPACE COMPLEX (PKMTR)
aabbcc
Your satellite tracking list
Your tracking list is empty




NASA's NSSDC Master Catalog

Two Line Element Set (TLE):
1 20550U 90029B   19110.72273182 +.00000008 +00000-0 +16212-3 0  9999
2 20550 073.9817 178.0470 0008959 288.4653 217.7602 12.49162497324226
Source of the keplerian elements: AFSPC